Simultaneous Nadir Overpasses (SNOs) Predictions

Prediction of SNOs between FY3D and TERRA Satellite Orbit:

Table of predicted SNOs for the next 14.0 days since TLE Epoch: 2/24/2024
Index Date (FY3D) Time (FY3D) Lat,Lon (FY3D) SZA (FY3D ) Date (TERRA) Time (TERRA) Lat,Lon (TERRA) SZA (TERRA ) Distance(km) Time Diff (sec)
1 02/25/2024 21:08:48 75.56,-138.67 84.56 02/25/2024 21:09:55 75.44,-136.25 84.39 68.75 67
2 02/25/2024 21:59:22 -75.04, 30.24 96.01 02/25/2024 21:59:26 -75.04, 30.36 96.01 3.40 4
3 02/25/2024 22:50:02 74.76,-161.63 83.69 02/25/2024 22:48:50 74.83,-162.51 83.78 26.99 72
4 02/28/2024 09:12:26 -75.05,-138.00 96.92 02/28/2024 09:13:16 -75.06,-138.09 96.92 2.77 50
5 02/28/2024 10:03:11 75.00, 29.44 83.02 02/28/2024 10:02:37 75.00, 29.42 83.02 0.57 34
6 03/01/2024 21:16:16 75.07,-138.96 82.15 03/01/2024 21:16:26 75.04,-138.96 82.12 2.63 10
7 03/01/2024 22:07:00 -75.02, 28.49 97.92 03/01/2024 22:05:50 -75.01, 28.60 97.93 3.41 70
8 03/04/2024 08:29:19 75.09, 52.75 81.22 03/04/2024 08:30:13 75.11, 52.73 81.24 2.36 54
9 03/04/2024 09:20:03 -75.04,-139.80 98.85 03/04/2024 09:19:38 -75.02,-139.85 98.87 2.82 25
10 03/06/2024 20:33:07 -75.07, 51.89 99.77 03/06/2024 20:33:26 -75.06, 51.77 99.79 3.79 19



Historial Predications of SNOs between FY3D and TERRA
